TimeEST,TemperatureF,Dew PointF,Humidity,Sea Level PressureIn,VisibilityMPH,Wind Direction,Wind SpeedMPH,Gust SpeedMPH,PrecipitationIn,Events,Conditions,WindDirDegrees,DateUTC
12:51 AM,30.0,16.0,56,29.77,10.0,NW,20.7,27.6,N/A,,Mostly Cloudy,310,2013-03-04 05:51:00
1:51 AM,28.9,16.0,58,29.77,10.0,NW,19.6,27.6,N/A,,Partly Cloudy,310,2013-03-04 06:51:00
2:51 AM,28.9,16.0,58,29.77,10.0,NW,17.3,25.3,N/A,,Partly Cloudy,320,2013-03-04 07:51:00
3:51 AM,28.4,17.6,64,29.77,10.0,NW,18.4,25.3,N/A,,Clear,320,2013-03-04 08:51:00
4:51 AM,28.9,18.0,64,29.78,10.0,NW,16.1,23.0,N/A,,Overcast,310,2013-03-04 09:51:00
5:51 AM,30.2,17.6,60,29.78,10.0,WNW,15.0,-,N/A,,Mostly Cloudy,300,2013-03-04 10:51:00
6:51 AM,30.2,17.6,60,29.80,10.0,WNW,17.3,25.3,N/A,,Mostly Cloudy,300,2013-03-04 11:51:00
7:51 AM,30.9,19.0,61,29.81,10.0,NW,19.6,29.9,N/A,,Mostly Cloudy,320,2013-03-04 12:51:00
8:51 AM,32.0,19.0,59,29.80,10.0,NW,19.6,29.9,N/A,,Scattered Clouds,310,2013-03-04 13:51:00
9:51 AM,33.1,19.0,56,29.80,10.0,NW,18.4,27.6,N/A,,Scattered Clouds,320,2013-03-04 14:51:00
10:51 AM,35.1,18.0,50,29.80,10.0,WNW,18.4,-,N/A,,Scattered Clouds,290,2013-03-04 15:51:00
11:51 AM,37.0,19.0,48,29.79,10.0,NW,17.3,24.2,N/A,,Scattered Clouds,320,2013-03-04 16:51:00
12:51 PM,39.9,19.0,43,29.77,10.0,WNW,17.3,27.6,N/A,,Scattered Clouds,300,2013-03-04 17:51:00
1:51 PM,39.2,19.4,45,29.76,10.0,NW,20.7,27.6,N/A,,Scattered Clouds,310,2013-03-04 18:51:00
2:51 PM,39.9,19.0,43,29.77,10.0,NW,20.7,29.9,N/A,,Scattered Clouds,310,2013-03-04 19:51:00
3:51 PM,39.0,19.0,45,29.77,10.0,NW,25.3,34.5,N/A,,Scattered Clouds,320,2013-03-04 20:51:00
4:51 PM,39.0,19.9,46,29.79,10.0,NW,21.9,33.4,N/A,,Scattered Clouds,320,2013-03-04 21:51:00
5:51 PM,37.9,18.0,45,29.82,10.0,NW,19.6,28.8,N/A,,Scattered Clouds,320,2013-03-04 22:51:00
6:51 PM,36.0,19.0,50,29.84,10.0,NW,18.4,28.8,N/A,,Partly Cloudy,310,2013-03-04 23:51:00
7:51 PM,36.0,19.0,50,29.86,10.0,NW,17.3,26.5,N/A,,Partly Cloudy,320,2013-03-05 00:51:00
8:51 PM,35.1,19.0,52,29.87,10.0,NW,19.6,29.9,N/A,,Partly Cloudy,310,2013-03-05 01:51:00
9:51 PM,33.8,19.4,56,29.88,10.0,NW,19.6,27.6,N/A,,Partly Cloudy,310,2013-03-05 02:51:00
10:51 PM,34.0,19.0,54,29.90,10.0,NNW,19.6,27.6,N/A,,Partly Cloudy,330,2013-03-05 03:51:00
11:51 PM,34.0,19.9,56,29.90,10.0,NW,20.7,28.8,0.00,,Partly Cloudy,310,2013-03-05 04:51:00